period_start,C,m1,H,J0,J1,J2,J3,J4,J5,JA,JB,JC,JD,JJ,JK,JN,#
2016-02-25 00:02:40,0.19,1.60,0.00,19.88,24.33,28.15,14.83,48.17,1024.92,2044.98,2970.78,2716.13,3078.43,600.04,607.29,15.61,0000 0000 0000 0000 000000
2016-02-25 00:07:41,0.17,1.61,0.00,19.88,24.33,28.13,14.84,48.18,1024.91,2044.99,2967.80,2713.98,3075.95,600.29,607.75,15.66,0000 0000 0000 0000 000000
2016-02-25 00:12:42,0.17,1.62,0.00,19.91,24.34,28.10,14.94,48.36,1024.89,2044.99,2964.80,2711.83,3073.44,600.33,607.57,15.71,0000 0000 0000 0000 000000
2016-02-25 00:17:43,0.16,1.63,0.00,19.92,24.35,28.11,14.87,48.38,1024.78,2044.99,2961.90,2709.65,3071.08,599.85,606.99,15.76,0000 0000 0000 0000 000000
2016-02-25 00:22:45,0.16,1.64,0.00,19.94,24.35,28.10,14.84,48.33,1024.62,2044.98,2959.08,2707.60,3068.74,600.01,607.01,15.81,0000 0000 0000 0000 000000
2016-02-25 00:27:46,0.16,1.65,0.00,19.97,24.35,28.12,14.84,48.30,1024.55,2044.98,2956.15,2705.53,3066.37,599.98,606.88,15.86,0000 0000 0000 0000 000000
2016-02-25 00:32:47,0.16,1.65,0.00,19.97,24.35,28.09,14.87,48.41,1024.45,2044.98,2953.38,2703.52,3064.09,600.26,607.07,15.91,0000 0000 0000 0000 000000
2016-02-25 00:37:48,0.17,1.66,0.00,19.98,24.37,28.13,14.84,48.42,1024.44,2044.98,2950.45,2701.39,3061.63,600.20,606.97,15.96,0000 0000 0000 0000 000000
2016-02-25 00:42:49,0.16,1.67,0.00,20.02,24.37,28.15,14.91,48.34,1024.43,2044.98,2947.44,2699.21,3059.15,600.22,606.95,16.01,0000 0000 0000 0000 000000
2016-02-25 00:47:51,0.16,1.68,0.00,20.06,24.40,28.12,14.88,48.32,1024.44,2044.96,2944.70,2697.06,3056.68,600.04,606.64,16.06,0000 0000 0000 0000 000000
2016-02-25 00:52:52,0.16,1.69,0.00,20.09,24.41,28.18,14.85,48.26,1024.43,2044.93,2941.97,2694.97,3054.31,599.90,606.38,16.11,0000 0000 0000 0000 000000
2016-02-25 00:57:53,0.14,1.69,0.00,20.10,24.42,28.19,14.89,48.32,1024.43,2044.70,2938.92,2692.78,3051.77,600.08,606.69,16.16,0000 0000 0000 0000 000000
2016-02-25 01:02:54,0.14,1.70,0.00,20.13,24.45,28.21,14.83,48.52,1024.43,2044.29,2935.74,2690.46,3049.14,600.10,606.60,16.21,0000 0000 0000 0000 000000
2016-02-25 01:07:55,0.15,1.71,0.00,20.17,24.47,28.21,14.81,48.26,1024.43,2044.07,2933.05,2688.28,3046.61,599.86,606.28,16.26,0000 0000 0000 0000 000000
2016-02-25 01:12:57,0.17,1.72,0.00,20.22,24.49,28.26,14.84,48.23,1024.43,2044.02,2930.19,2686.19,3044.09,599.88,606.26,16.31,0000 0000 0000 0000 000000
2016-02-25 01:17:58,0.19,1.73,0.00,20.23,24.51,28.26,14.88,48.30,1024.43,2044.00,2926.79,2683.83,3041.37,600.39,606.62,16.36,0000 0000 0000 0000 000000
2016-02-25 01:22:59,0.18,1.74,0.00,20.27,24.54,28.29,14.86,48.50,1024.42,2044.00,2923.37,2681.41,3038.62,599.99,606.19,16.41,0000 0000 0000 0000 000000
2016-02-25 01:28:00,0.20,1.75,0.00,20.30,24.56,28.32,14.83,48.54,1024.42,2044.00,2920.18,2679.06,3035.86,600.21,606.32,16.46,0000 0000 0000 0000 000000
2016-02-25 01:33:02,0.17,1.76,0.00,20.33,24.60,28.30,14.84,48.62,1024.41,2043.99,2917.24,2676.76,3033.27,599.92,606.01,16.51,0000 0000 0000 0000 000000
2016-02-25 01:38:03,0.17,1.76,0.00,20.37,24.63,28.39,14.76,48.58,1024.40,2043.98,2914.46,2674.56,3030.81,599.97,605.99,16.56,0000 0000 0000 0000 000000
2016-02-25 01:43:05,0.17,1.77,0.00,20.42,24.66,28.44,14.91,48.52,1024.35,2043.91,2911.38,2672.33,3028.18,600.37,606.21,16.61,0000 0000 0000 0000 000000
2016-02-25 01:48:06,0.13,1.78,0.00,20.45,24.70,28.43,14.83,48.50,1024.26,2043.49,2908.27,2670.06,3025.54,599.91,605.65,16.66,0000 0000 0000 0000 000000
2016-02-25 01:53:07,0.14,1.79,0.00,20.49,24.73,28.45,14.82,48.49,1024.20,2043.10,2905.24,2667.75,3022.96,599.87,605.47,16.71,0000 0000 0000 0000 000000
2016-02-25 01:58:09,0.18,1.80,0.00,20.55,24.76,28.49,14.86,48.58,1024.05,2043.01,2902.14,2665.44,3020.32,600.22,605.64,16.76,0000 0000 0000 0000 000000
2016-02-25 02:03:10,0.18,1.80,0.00,20.60,24.80,28.52,14.82,48.56,1023.97,2043.00,2899.12,2663.16,3017.70,600.28,605.49,16.81,0000 0000 0000 0000 000000
2016-02-25 02:08:11,0.18,1.81,0.00,20.64,24.83,28.60,14.73,48.51,1023.96,2042.99,2896.06,2660.87,3015.08,599.78,605.07,16.86,0000 0000 0000 0000 000000
2016-02-25 02:13:13,0.17,1.82,0.00,20.68,24.86,28.66,14.78,48.63,1023.94,2042.98,2893.11,2658.59,3012.51,600.04,604.98,16.91,0000 0000 0000 0000 000000
2016-02-25 02:18:14,0.13,1.83,0.00,20.73,24.90,28.63,14.77,48.52,1023.94,2042.71,2890.27,2656.41,3010.02,599.73,604.70,16.96,0000 0000 0000 0000 000000
2016-02-25 02:23:16,0.12,1.84,0.00,20.78,24.93,28.68,14.75,48.55,1023.94,2042.19,2887.42,2654.26,3007.60,600.03,604.83,17.01,0000 0000 0000 0000 000000
2016-02-25 02:28:17,0.16,1.84,0.00,20.84,24.96,28.70,14.82,48.56,1023.94,2042.06,2884.58,2652.12,3005.32,600.03,604.86,17.06,0000 0000 0000 0000 000000
2016-02-25 02:33:19,0.17,1.85,0.00,20.89,25.00,28.77,14.68,48.41,1023.94,2042.01,2881.73,2649.98,3002.82,600.01,604.65,17.11,0000 0000 0000 0000 000000
2016-02-25 02:38:20,0.18,1.86,0.00,20.92,25.03,28.81,14.77,48.53,1023.94,2042.00,2878.78,2647.78,3000.28,600.25,604.83,17.16,0000 0000 0000 0000 000000
2016-02-25 02:43:21,0.17,1.87,0.00,20.94,25.07,28.83,14.81,48.60,1023.93,2041.99,2875.95,2645.59,2997.78,599.95,604.68,17.21,0000 0000 0000 0000 000000
2016-02-25 02:48:22,0.17,1.88,0.00,20.98,25.11,28.87,14.72,48.57,1023.90,2041.99,2873.09,2643.38,2995.29,599.81,604.23,17.26,0000 0000 0000 0000 000000
2016-02-25 02:53:24,0.16,1.89,0.00,21.01,25.15,28.89,14.82,48.64,1023.89,2041.90,2870.18,2641.20,2992.81,600.34,604.73,17.31,0000 0000 0000 0000 000000
2016-02-25 02:58:25,0.14,1.90,0.00,21.04,25.18,28.92,14.83,48.57,1023.89,2041.65,2867.44,2639.12,2990.39,600.10,604.38,17.36,0000 0000 0000 0000 000000
2016-02-25 03:03:26,0.13,1.90,0.00,21.10,25.22,28.99,14.81,48.61,1023.71,2041.16,2864.61,2636.97,2987.95,600.13,604.21,17.41,0000 0000 0000 0000 000000
2016-02-25 03:08:28,0.16,1.91,0.00,21.15,25.26,29.02,14.63,48.48,1023.51,2041.01,2861.86,2634.87,2985.49,599.84,603.67,17.46,0000 0000 0000 0000 000000
2016-02-25 03:13:29,0.18,1.92,0.00,21.18,25.30,29.06,14.82,48.52,1023.47,2041.00,2858.89,2632.72,2982.99,600.06,603.82,17.51,0000 0000 0000 0000 000000
2016-02-25 03:18:30,0.17,1.93,0.00,21.23,25.34,29.09,14.79,48.67,1023.47,2041.00,2856.02,2630.56,2980.54,599.84,603.50,17.56,0000 0000 0000 0000 000000
2016-02-25 03:23:31,0.18,1.94,0.00,21.29,25.38,29.15,14.77,48.65,1023.46,2040.98,2852.91,2628.36,2978.07,600.23,603.71,17.61,0000 0000 0000 0000 000000
2016-02-25 03:28:33,0.17,1.95,0.00,21.33,25.41,29.17,14.81,48.51,1023.45,2040.94,2850.08,2626.27,2975.62,600.17,603.48,17.66,0000 0000 0000 0000 000000
2016-02-25 03:33:34,0.10,1.95,0.00,21.38,25.45,29.23,14.74,48.59,1023.45,2040.44,2847.24,2624.15,2973.17,599.83,603.17,17.71,0000 0000 0000 0000 000000
2016-02-25 03:38:36,0.14,1.96,0.00,21.43,25.48,29.22,14.79,48.65,1023.45,2040.06,2844.51,2622.17,2970.75,600.16,603.37,17.76,0000 0000 0000 0000 000000
2016-02-25 03:43:37,0.17,1.97,0.00,21.46,25.51,29.27,14.70,48.35,1023.45,2040.00,2841.66,2620.03,2968.27,600.06,603.28,17.81,0000 0000 0000 0000 000000
2016-02-25 03:48:38,0.16,1.98,0.00,21.50,25.55,29.33,14.79,48.46,1023.45,2040.00,2838.95,2617.96,2965.87,600.07,603.11,17.86,0000 0000 0000 0000 000000
2016-02-25 03:53:39,0.17,1.99,0.00,21.54,25.58,29.36,14.75,48.46,1023.45,2039.99,2836.07,2615.86,2963.46,600.06,603.01,17.91,0000 0000 0000 0000 000000
2016-02-25 03:58:41,0.17,1.99,0.00,21.57,25.61,29.40,14.63,48.40,1023.45,2039.96,2833.23,2613.78,2961.05,599.82,602.67,17.96,0000 0000 0000 0000 000000
2016-02-25 04:03:42,0.15,2.00,0.00,21.60,25.65,29.40,14.66,48.32,1023.45,2039.81,2830.39,2611.65,2958.67,600.18,603.17,18.01,0000 0000 0000 0000 000000
2016-02-25 04:08:43,0.13,2.01,0.00,21.66,25.69,29.42,14.69,48.45,1023.44,2039.44,2827.52,2609.55,2956.29,599.77,602.54,18.06,0000 0000 0000 0000 000000
2016-02-25 04:13:44,0.15,2.02,0.00,21.72,25.73,29.47,14.74,48.46,1023.44,2039.09,2824.71,2607.42,2953.80,600.13,602.78,18.11,0000 0000 0000 0000 000000
2016-02-25 04:18:45,0.19,2.03,0.00,21.76,25.77,29.50,14.69,48.52,1023.35,2039.01,2821.61,2605.16,2951.19,599.82,602.37,18.16,0000 0000 0000 0000 000000
2016-02-25 04:23:47,0.19,2.04,0.00,21.80,25.81,29.56,14.65,48.42,1023.21,2039.00,2818.72,2602.83,2948.55,599.88,602.18,18.21,0000 0000 0000 0000 000000
2016-02-25 04:28:47,0.17,2.04,0.00,21.85,25.85,29.64,14.61,48.27,1023.01,2038.98,2815.80,2600.58,2945.97,599.62,601.71,18.27,0000 0000 0000 0000 000000
2016-02-25 04:33:49,0.16,2.05,0.00,21.90,25.90,29.68,14.62,48.32,1022.98,2038.76,2812.74,2598.25,2943.38,599.49,601.50,18.31,0000 0000 0000 0000 000000
2016-02-25 04:38:50,0.15,2.06,0.00,21.94,25.94,29.69,14.66,48.25,1022.97,2038.25,2809.51,2595.85,2940.64,599.94,601.80,18.37,0000 0000 0000 0000 000000
2016-02-25 04:43:52,0.20,2.07,0.00,21.98,25.98,29.76,14.65,48.23,1022.96,2038.02,2806.14,2593.37,2937.80,600.06,601.72,18.42,0000 0000 0000 0000 000000
2016-02-25 04:48:53,0.21,2.08,0.00,22.01,26.02,29.79,14.61,48.23,1022.96,2038.00,2802.77,2590.88,2934.98,600.08,601.83,18.47,0000 0000 0000 0000 000000
2016-02-25 04:53:54,0.21,2.09,0.00,22.07,26.06,29.83,14.71,48.23,1022.96,2037.99,2799.42,2588.28,2932.07,600.12,601.76,18.52,0000 0000 0000 0000 000000
2016-02-25 04:58:55,0.19,2.10,0.00,22.10,26.10,29.88,14.68,48.33,1022.96,2037.92,2796.13,2585.79,2929.24,600.11,601.65,18.57,0000 0000 0000 0000 000000
2016-02-25 05:03:56,0.14,2.11,0.00,22.14,26.14,29.93,14.65,48.11,1022.96,2037.51,2792.93,2583.40,2926.46,599.73,601.23,18.62,0000 0000 0000 0000 000000
2016-02-25 05:08:58,0.18,2.12,0.00,22.16,26.17,29.93,14.54,48.17,1022.96,2037.04,2789.55,2580.87,2923.56,600.09,601.65,18.67,0000 0000 0000 0000 000000
2016-02-25 05:13:59,0.22,2.13,0.00,22.20,26.21,29.99,14.66,48.16,1022.95,2037.01,2786.06,2578.27,2920.63,599.96,601.26,18.72,0000 0000 0000 0000 000000
2016-02-25 05:19:00,0.21,2.14,0.00,22.23,26.25,30.01,14.71,48.10,1022.89,2037.00,2782.73,2575.83,2917.76,600.11,601.40,18.77,0000 0000 0000 0000 000000
2016-02-25 05:24:02,0.23,2.15,0.00,22.25,26.28,30.04,14.78,48.13,1022.75,2036.99,2779.06,2573.18,2914.70,600.29,601.33,18.82,0000 0000 0000 0000 000000
2016-02-25 05:29:03,0.21,2.16,0.00,22.28,26.31,30.09,14.66,48.21,1022.83,2036.97,2775.53,2570.51,2911.70,600.07,601.26,18.87,0000 0000 0000 0000 000000
2016-02-25 05:34:04,0.20,2.17,0.00,22.30,26.35,30.08,14.68,48.19,1022.82,2036.69,2771.87,2567.84,2908.57,600.05,601.13,18.92,0000 0000 0000 0000 000000
2016-02-25 05:39:06,0.19,2.18,0.00,22.31,26.38,30.11,14.69,48.29,1022.71,2036.24,2768.16,2565.06,2905.38,599.97,600.99,18.97,0000 0000 0000 0000 000000
2016-02-25 05:44:07,0.22,2.19,0.00,22.33,26.41,30.17,14.68,48.27,1022.74,2036.07,2764.36,2562.31,2902.21,600.02,600.94,19.02,0000 0000 0000 0000 000000
2016-02-25 05:49:08,0.24,2.20,0.00,22.35,26.43,30.18,14.63,48.20,1022.75,2036.01,2760.43,2559.47,2898.87,600.08,601.02,19.07,0000 0000 0000 0000 000000
2016-02-25 05:54:10,0.24,2.22,0.00,22.39,26.46,30.25,14.71,48.32,1022.78,2036.00,2756.57,2556.80,2895.65,600.24,601.21,19.12,0000 0000 0000 0000 000000
2016-02-25 05:59:11,0.25,2.23,0.00,22.41,26.48,30.23,14.62,48.09,1022.55,2036.00,2752.70,2553.90,2892.37,599.81,600.61,19.17,0000 0000 0000 0000 000000
2016-02-25 06:04:12,0.25,2.24,0.00,22.43,26.51,30.28,14.71,48.28,1022.54,2036.00,2748.94,2550.97,2888.97,599.86,600.43,19.22,0000 0000 0000 0000 000000
2016-02-25 06:09:13,0.26,2.25,0.00,22.39,26.53,30.32,14.61,48.22,1022.62,2035.98,2744.92,2548.00,2885.56,600.01,600.84,19.27,0000 0000 0000 0000 000000
2016-02-25 06:14:14,0.25,2.27,0.00,22.43,26.55,30.31,14.75,48.25,1022.64,2035.94,2741.00,2545.09,2882.21,600.19,600.92,19.32,0000 0000 0000 0000 000000
2016-02-25 06:19:15,0.23,2.28,0.00,22.44,26.57,30.31,14.71,48.17,1022.77,2035.85,2737.09,2542.21,2879.00,599.80,600.59,19.37,0000 0000 0000 0000 000000
2016-02-25 06:24:17,0.19,2.29,0.00,22.46,26.59,30.34,14.65,48.03,1022.71,2035.35,2733.07,2539.27,2875.73,599.61,600.27,19.42,0000 0000 0000 0000 000000
2016-02-25 06:29:18,0.24,2.30,0.00,22.48,26.61,30.36,14.65,48.10,1022.74,2035.26,2729.26,2536.48,2872.53,600.05,600.80,19.47,0000 0000 0000 0000 000000
2016-02-25 06:34:19,0.24,2.31,0.00,22.50,26.63,30.43,14.63,48.16,1022.66,2035.11,2725.39,2533.57,2869.26,599.99,600.59,19.52,0000 0000 0000 0000 000000
2016-02-25 06:39:20,0.25,2.33,0.00,22.54,26.65,30.42,14.67,48.05,1022.78,2035.03,2721.42,2530.70,2865.94,599.88,600.41,19.57,0000 0000 0000 0000 000000
2016-02-25 06:44:22,0.26,2.34,0.00,22.55,26.67,30.43,14.70,48.12,1022.65,2035.01,2717.32,2527.73,2862.49,600.05,600.55,19.62,0000 0000 0000 0000 000000
2016-02-25 06:49:23,0.26,2.36,0.00,22.56,26.70,30.43,14.62,47.96,1022.64,2035.00,2713.29,2524.64,2859.04,599.91,600.53,19.67,0000 0000 0000 0000 000000
2016-02-25 06:54:24,0.26,2.37,0.00,22.57,26.71,30.46,14.65,48.13,1022.66,2035.00,2709.25,2521.72,2855.66,600.07,600.52,19.72,0000 0000 0000 0000 000000
2016-02-25 06:59:26,0.26,2.38,0.00,22.58,26.73,30.50,14.68,48.07,1022.56,2035.00,2705.18,2518.74,2852.20,600.04,600.45,19.77,0000 0000 0000 0000 000000
2016-02-25 07:04:27,0.24,2.39,0.00,22.60,26.75,30.51,14.63,48.07,1022.69,2034.99,2701.36,2515.86,2848.94,599.97,600.44,19.82,0000 0000 0000 0000 000000
2016-02-25 07:09:28,0.24,2.41,0.00,22.59,26.76,30.53,14.67,48.17,1022.69,2034.95,2697.47,2513.00,2845.68,599.93,600.34,19.87,0000 0000 0000 0000 000000
2016-02-25 07:14:30,0.23,2.42,0.00,22.62,26.77,30.51,14.72,48.21,1022.77,2034.87,2693.81,2510.24,2842.53,600.11,600.53,19.92,0000 0000 0000 0000 000000
2016-02-25 07:19:31,0.21,2.43,0.00,22.62,26.80,30.54,14.68,48.13,1022.67,2034.68,2690.32,2507.63,2839.56,599.88,600.27,19.97,0000 0000 0000 0000 000000
2016-02-25 07:24:32,0.19,2.44,0.00,22.62,26.81,30.54,14.71,48.21,1022.58,2034.33,2686.63,2504.96,2836.44,600.13,600.41,20.02,0000 0000 0000 0000 000000
2016-02-25 07:29:33,0.24,2.45,0.00,22.65,26.82,30.57,14.60,48.04,1022.56,2034.23,2682.93,2502.19,2833.32,599.67,599.90,20.07,0000 0000 0000 0000 000000
2016-02-25 07:34:35,0.23,2.46,0.00,22.65,26.84,30.58,14.72,48.12,1022.57,2034.04,2679.25,2499.46,2830.16,600.12,600.44,20.12,0000 0000 0000 0000 000000
2016-02-25 07:39:36,0.23,2.48,0.00,22.66,26.85,30.60,14.69,48.13,1022.51,2034.01,2675.69,2496.81,2827.15,600.09,600.21,20.17,0000 0000 0000 0000 000000
2016-02-25 07:44:37,0.23,2.49,0.00,22.81,26.87,30.55,14.65,48.08,1022.60,2034.01,2672.21,2494.36,2824.15,600.13,600.09,20.22,0000 0000 0000 0000 000000
2016-02-25 07:49:38,0.24,2.50,0.00,22.98,26.91,30.59,14.70,48.03,1022.79,2034.00,2668.70,2491.64,2821.09,600.08,599.77,20.27,0000 0000 0000 0000 000000
2016-02-25 07:54:39,0.24,2.51,0.00,22.90,26.94,30.69,14.67,48.12,1022.61,2033.99,2665.17,2488.98,2818.04,600.02,599.85,20.32,0000 0000 0000 0000 000000
2016-02-25 07:59:40,0.24,2.52,0.00,22.82,26.96,30.77,14.53,47.94,1022.54,2033.98,2661.49,2486.32,2815.05,599.37,599.35,20.37,0000 0000 0000 0000 000000
2016-02-25 08:04:42,0.23,2.53,0.00,22.77,26.98,30.76,14.64,48.07,1022.61,2033.93,2657.86,2483.63,2812.03,600.07,599.98,20.42,0000 0000 0000 0000 000000
2016-02-25 08:09:43,0.21,2.55,0.00,22.74,27.00,30.77,14.69,48.19,1022.72,2033.76,2654.34,2481.07,2809.07,599.92,600.06,20.47,0000 0000 0000 0000 000000
2016-02-25 08:14:44,0.22,2.56,0.00,22.74,27.00,30.72,14.69,48.26,1022.75,2033.55,2650.56,2478.37,2805.96,599.66,599.88,20.52,0000 0000 0000 0000 000000
2016-02-25 08:19:45,0.21,2.57,0.00,22.72,27.02,30.72,14.60,48.09,1022.77,2033.20,2646.87,2475.63,2802.82,599.77,599.99,20.57,0000 0000 0000 0000 000000
2016-02-25 08:24:46,0.23,2.58,0.00,22.74,27.02,30.68,14.63,48.20,1022.72,2033.14,2643.29,2473.04,2799.88,600.07,600.21,20.62,0000 0000 0000 0000 000000
2016-02-25 08:29:47,0.22,2.59,0.00,22.74,27.02,30.70,14.62,48.06,1022.71,2033.03,2639.74,2470.39,2796.86,600.07,600.09,20.67,0000 0000 0000 0000 000000
2016-02-25 08:34:49,0.24,2.60,0.00,22.74,27.02,30.73,14.57,48.03,1022.71,2033.03,2636.02,2467.70,2793.77,599.82,599.95,20.72,0000 0000 0000 0000 000000
2016-02-25 08:39:50,0.26,2.62,0.00,22.90,27.04,30.71,14.68,48.17,1022.72,2033.04,2632.36,2464.93,2790.65,600.04,599.88,20.77,0000 0000 0000 0000 000000
2016-02-25 08:44:51,0.24,2.63,0.00,23.11,27.06,30.70,14.64,48.20,1022.67,2033.00,2628.90,2462.22,2787.63,599.90,599.17,20.82,0000 0000 0000 0000 000000
2016-02-25 08:49:52,0.26,2.64,0.00,22.96,27.09,30.77,14.64,47.96,1022.66,2033.00,2625.10,2459.41,2784.39,599.96,599.70,20.87,0000 0000 0000 0000 000000
2016-02-25 08:54:53,0.24,2.65,0.00,22.86,27.10,30.80,14.62,48.18,1022.68,2033.00,2621.52,2456.70,2781.19,599.63,599.50,20.92,0000 0000 0000 0000 000000
2016-02-25 08:59:55,0.25,2.67,0.00,22.82,27.10,30.83,14.63,48.13,1022.64,2033.00,2617.86,2454.04,2778.11,600.02,599.95,20.97,0000 0000 0000 0000 000000
2016-02-25 09:04:56,0.24,2.68,0.00,22.81,27.11,30.81,14.71,48.12,1022.83,2032.98,2614.29,2451.35,2775.09,600.09,600.11,21.02,0000 0000 0000 0000 000000
2016-02-25 09:09:57,0.24,2.69,0.00,22.79,27.12,30.82,14.66,48.09,1022.88,2032.99,2610.77,2448.77,2772.11,600.04,600.19,21.07,0000 0000 0000 0000 000000
2016-02-25 09:14:59,0.24,2.70,0.00,22.88,27.12,30.86,14.58,48.03,1022.74,2032.99,2607.12,2446.15,2769.07,599.84,599.71,21.12,0000 0000 0000 0000 000000
2016-02-25 09:20:00,0.24,2.72,0.00,23.07,27.14,30.78,14.61,48.12,1022.61,2032.98,2603.60,2443.46,2766.03,599.73,599.09,21.17,0000 0000 0000 0000 000000
2016-02-25 09:25:01,0.25,2.73,0.00,23.02,27.16,30.87,14.71,48.21,1022.77,2032.96,2599.96,2440.72,2762.93,600.02,599.64,21.22,0000 0000 0000 0000 000000
2016-02-25 09:30:02,0.24,2.74,0.00,22.93,27.17,30.92,14.62,48.17,1022.78,2032.74,2596.04,2437.94,2759.73,600.26,600.14,21.27,0000 0000 0000 0000 000000
2016-02-25 09:35:03,0.22,2.75,0.00,22.87,27.18,30.90,14.62,48.23,1022.78,2032.43,2592.25,2435.13,2756.54,600.04,599.98,21.32,0000 0000 0000 0000 000000
2016-02-25 09:40:05,0.27,2.77,0.00,22.83,27.19,30.89,14.71,48.58,1022.72,2032.36,2588.36,2432.38,2753.32,600.23,600.21,21.37,0000 0000 0000 0000 000000
2016-02-25 09:45:06,0.27,2.78,0.00,22.79,27.18,30.87,14.58,48.27,1022.70,2032.56,2584.63,2429.79,2750.40,599.70,599.75,21.42,0000 0000 0000 0000 000000
2016-02-25 09:50:08,0.27,2.79,0.00,22.77,27.18,30.86,14.65,48.30,1022.56,2032.63,2580.82,2427.04,2747.28,599.79,599.75,21.47,0000 0000 0000 0000 000000
2016-02-25 09:55:09,0.23,2.80,0.00,22.76,27.17,30.89,14.67,48.21,1022.52,2032.44,2577.09,2424.31,2744.12,599.91,599.91,21.52,0000 0000 0000 0000 000000
2016-02-25 10:00:10,0.27,2.82,0.00,22.92,27.18,30.87,14.60,48.08,1022.53,2032.70,2573.62,2421.69,2741.14,599.71,599.30,21.57,0000 0000 0000 0000 000000
2016-02-25 10:05:12,0.21,2.83,0.00,23.08,27.20,30.84,14.60,48.06,1022.52,2032.40,2570.13,2419.05,2738.13,600.23,599.63,21.62,0000 0000 0000 0000 000000
2016-02-25 10:10:13,0.22,2.84,0.00,23.04,27.22,30.87,14.63,48.11,1022.50,2032.10,2566.51,2416.39,2735.09,599.78,599.20,21.67,0000 0000 0000 0000 000000
2016-02-25 10:15:14,0.26,2.85,0.00,22.92,27.22,30.91,14.70,48.25,1022.50,2032.04,2562.77,2413.65,2731.99,600.36,600.00,21.72,0000 0000 0000 0000 000000
2016-02-25 10:20:15,0.25,2.87,0.00,22.85,27.22,30.90,14.69,48.29,1022.49,2032.01,2559.21,2410.99,2728.93,600.27,600.11,21.77,0000 0000 0000 0000 000000
2016-02-25 10:25:17,0.24,2.88,0.00,22.80,27.22,30.92,14.64,48.47,1022.49,2032.01,2555.81,2408.40,2725.96,600.02,599.90,21.82,0000 0000 0000 0000 000000
2016-02-25 10:30:18,0.24,2.89,0.00,22.79,27.22,30.90,14.60,48.32,1022.49,2032.01,2552.34,2405.88,2723.06,599.94,599.85,21.87,0000 0000 0000 0000 000000
2016-02-25 10:35:19,0.24,2.90,0.00,22.78,27.22,30.88,14.68,48.26,1022.49,2032.02,2548.91,2403.38,2720.19,599.84,599.75,21.92,0000 0000 0000 0000 000000
2016-02-25 10:40:20,0.22,2.92,0.00,22.75,27.22,30.90,14.77,48.29,1022.50,2032.03,2545.75,2401.05,2717.49,600.42,600.38,21.97,0000 0000 0000 0000 000000
2016-02-25 10:45:22,0.22,2.93,0.00,22.83,27.21,30.88,14.72,48.41,1022.49,2032.02,2542.67,2398.70,2714.84,599.91,599.78,22.02,0000 0000 0000 0000 000000
2016-02-25 10:50:24,0.20,2.94,0.00,23.08,27.22,30.81,14.66,48.24,1022.49,2032.01,2539.81,2396.43,2712.37,600.21,599.52,22.07,0000 0000 0000 0000 000000
2016-02-25 10:55:25,0.23,2.95,0.00,23.16,27.25,30.82,14.60,48.27,1022.49,2032.00,2536.65,2394.11,2709.66,599.44,598.54,22.12,0000 0000 0000 0000 000000
2016-02-25 11:00:27,0.22,2.96,0.00,23.10,27.27,30.94,14.64,48.23,1022.49,2032.00,2533.57,2391.77,2707.00,600.04,599.24,22.18,0000 0000 0000 0000 000000
2016-02-25 11:05:28,0.21,2.97,0.00,22.98,27.27,30.99,14.62,48.14,1022.48,2032.00,2530.57,2389.49,2704.41,599.72,599.24,22.23,0000 0000 0000 0000 000000
2016-02-25 11:10:30,0.21,2.98,0.00,22.89,27.28,30.95,14.72,48.28,1022.48,2031.99,2527.54,2387.30,2701.89,600.15,599.86,22.28,0000 0000 0000 0000 000000
2016-02-25 11:15:31,0.20,2.99,0.00,22.84,27.28,30.95,14.72,48.27,1022.48,2031.99,2524.64,2385.21,2699.49,600.27,600.01,22.33,0000 0000 0000 0000 000000
2016-02-25 11:20:32,0.20,3.00,0.00,22.82,27.28,30.88,14.77,48.13,1022.48,2031.99,2521.72,2383.11,2697.07,600.23,600.07,22.38,0000 0000 0000 0000 000000
2016-02-25 11:25:33,0.20,3.01,0.00,22.79,27.27,30.89,14.63,48.03,1022.48,2031.99,2518.96,2381.08,2694.79,599.86,599.78,22.43,0000 0000 0000 0000 000000
2016-02-25 11:30:35,0.19,3.02,0.00,22.77,27.27,30.90,14.58,48.01,1022.47,2031.99,2516.22,2379.13,2692.50,599.57,599.50,22.48,0000 0000 0000 0000 000000
2016-02-25 11:35:36,0.19,3.03,0.00,22.78,27.27,30.96,14.66,47.99,1022.47,2031.99,2513.55,2377.19,2690.26,600.15,600.04,22.53,0000 0000 0000 0000 000000
2016-02-25 11:40:38,0.20,3.04,0.00,22.77,27.26,30.92,14.69,48.14,1022.43,2031.99,2510.73,2375.14,2688.00,599.91,599.80,22.58,0000 0000 0000 0000 000000
2016-02-25 11:45:39,0.19,3.05,0.00,22.76,27.25,30.89,14.66,48.02,1022.32,2031.99,2507.95,2373.16,2685.80,600.34,600.21,22.63,0000 0000 0000 0000 000000
2016-02-25 11:50:40,0.20,3.06,0.00,23.03,27.25,30.89,14.61,48.04,1022.19,2031.99,2505.24,2371.09,2683.42,600.21,599.47,22.68,0000 0000 0000 0000 000000
2016-02-25 11:55:41,0.21,3.07,0.00,23.21,27.27,30.87,14.55,48.03,1022.15,2031.99,2502.48,2368.98,2681.06,599.92,598.76,22.73,0000 0000 0000 0000 000000
2016-02-25 12:00:42,0.21,3.08,0.00,23.22,27.29,30.90,14.57,48.27,1022.10,2031.98,2499.42,2366.82,2678.47,599.80,598.72,22.78,0000 0000 0000 0000 000000
2016-02-25 12:05:44,0.20,3.10,0.00,23.24,27.31,31.02,14.62,48.35,1022.32,2031.94,2496.44,2364.60,2675.88,599.80,598.73,22.83,0000 0000 0000 0000 000000
2016-02-25 12:10:45,0.20,3.11,0.00,23.16,27.33,31.15,14.63,48.25,1022.34,2031.84,2493.66,2362.47,2673.38,599.72,598.87,22.88,0000 0000 0000 0000 000000
2016-02-25 12:15:46,0.17,3.11,0.00,23.06,27.35,31.21,14.68,48.33,1022.20,2031.46,2490.63,2360.25,2670.86,599.81,598.98,22.93,0000 0000 0000 0000 000000
2016-02-25 12:20:48,0.19,3.12,0.00,22.96,27.35,31.05,14.62,48.08,1022.17,2031.25,2487.68,2358.12,2668.40,599.86,599.24,22.98,0000 0000 0000 0000 000000
2016-02-25 12:25:49,0.21,3.14,0.00,22.89,27.35,31.02,14.68,48.17,1022.19,2031.30,2484.84,2356.08,2666.06,599.99,599.51,23.03,0000 0000 0000 0000 000000
2016-02-25 12:30:50,0.20,3.14,0.00,22.86,27.35,31.02,14.61,48.08,1022.20,2031.17,2482.01,2354.01,2663.66,599.82,599.36,23.08,0000 0000 0000 0000 000000
2016-02-25 12:35:52,0.20,3.16,0.00,22.83,27.35,31.00,14.63,48.08,1022.04,2031.12,2479.20,2351.92,2661.30,600.00,599.74,23.13,0000 0000 0000 0000 000000
2016-02-25 12:40:53,0.24,3.17,0.00,22.80,27.35,31.01,14.69,48.19,1022.01,2031.31,2476.08,2349.78,2658.81,599.96,599.63,23.18,0000 0000 0000 0000 000000
2016-02-25 12:45:54,0.23,3.18,0.00,22.80,27.33,30.96,14.62,48.10,1022.00,2031.54,2473.15,2347.71,2656.43,599.93,599.49,23.23,0000 0000 0000 0000 000000
2016-02-25 12:50:56,0.19,3.19,0.00,22.76,27.32,30.97,14.70,48.13,1022.00,2031.65,2470.76,2345.86,2654.25,600.39,600.08,23.28,0000 0000 0000 0000 000000
2016-02-25 12:55:58,0.21,3.20,0.00,22.76,27.31,30.94,14.66,47.96,1021.99,2031.67,2467.80,2343.73,2651.86,600.29,599.93,23.33,0000 0000 0000 0000 000000